Vertical_Velocity
-0 0 -3 -0 2 -1 -1 -2 0 -0 -1 0 -1 -2 -0 -1 -1 -1 -0 -0 -0 -1 -1 -0 -1 -2 -0 -1 -1 0 -1 -0 -1 -1 -1 0 -1 -1 -0 -1 -1 -1 -1
3 4 -0 -0 1 1 -1 -2 -0 0 -1 -0 -0 -1 1 -1 -1 -0 0 -0 -1 -1 -1 -1 -1 -0 0 -0 -0 -0 0 -1 -1 0 -2 -1 -1 -1 -1 -1 -1 -1 -1
1 -1 1 0 2 1 -1 -3 -2 1 0 -1 -1 -1 -1 -2 -1 -1 -0 -0 -0 -1 -1 -1 -1 -1 -0 -1 -0 -0 0 0 -0 -1 -0 -1 -1 -1 -1 -1 -1 -1 -2
-1 0 1 -2 0 1 -0 -2 -2 -0 1 0 -0 -2 -1 -1 -1 -1 -1 -1 -2 -0 -1 -2 -2 -1 -1 -0 -1 -1 -1 0 0 -0 -0 -0 -1 -1 -1 -0 -1 -1 -1
-0 -0 1 -1 -0 0 -1 -1 -3 -2 0 1 0 -2 -1 -1 -2 -2 -0 -0 -0 -1 -1 -1 -1 -2 -2 -1 -1 -1 -0 -1 0 -0 -0 -1 -1 -1 -1 -0 -1 -1 -1
-1 -0 -0 1 1 -0 -1 1 -1 -2 -1 -0 1 -2 -3 -1 -1 -1 -1 -1 -0 -0 -0 -0 -1 -1 -1 -1 -0 0 -1 -1 -1 -1 -1 -1 -1 -1 -1 -2 -2 -2 -2
-5 0 -1 1 1 1 -1 0 0 -1 -1 -1 -0 -1 -2 -1 -0 -0 0 -0 -1 0 -0 -2 -1 -1 -1 -1 -1 -0 -1 -1 -1 -1 -1 -1 -2 -2 -1 -1 -2 -2 -2
-0 -1 -1 -0 1 -0 -0 -0 1 0 -1 -1 -1 1 -0 -1 -1 -1 0 -1 -1 -1 -1 -1 -2 -1 -1 0 -1 -0 0 -0 -0 -1 -1 -1 -1 -1 -1 -2 -2 -2 -1
2 0 -2 -0 1 0 -1 -0 -1 1 0 -0 -0 -1 -0 1 -1 -1 -1 -1 -1 -0 -0 -0 -0 -1 -0 -1 -0 -0 -0 -0 -1 -2 -2 -2 -1 -1 -2 -2 -2 -2 -2
0 4 2 -0 2 1 -1 -1 -0 -1 1 2 1 1 -1 -1 -1 -2 -1 -0 -2 -1 -1 -1 0 -0 -1 0 0 0 -1 -0 -1 -2 -2 -1 -1 -2 -2 -2 -2 -3 -2
-0 1 4 0 1 2 -1 -1 0 0 -1 1 1 0 -1 -1 -1 -0 -1 -1 -0 -0 -1 -0 -1 -0 -1 -1 -1 -1 -0 -1 -1 -1 -1 -1 -1 -1 -1 -1 -0 0 1
8 5 4 5 3 2 1 -0 0 0 0 0 2 2 0 0 -1 -1 -0 -1 -1 -1 -1 -1 -1 -1 -0 -0 -1 -1 -1 -1 -1 -1 -1 0 0 -0 -1 -1 0 0 0
31 4 8 4 5 6 1 0 0 0 1 0 1 2 1 0 0 -1 -1 -1 -1 -1 -1 -1 -1 -2 -1 -1 -0 0 -1 -0 -0 -0 -0 1 1 0 -1 -1 -2 -3 1
24 33 8 1 4 6 7 1 -1 1 1 1 -0 1 -1 0 -0 -1 -1 -1 -1 -1 -0 -2 -1 -1 -1 -1 -1 -1 -1 0 0 0 -0 0 -0 -1 -0 -1 -1 -2 -1
18 62 1 3 3 5 3 1 -0 1 1 2 0 1 0 0 0 0 1 -0 -1 -2 -1 -1 -1 -1 -1 -1 -0 -1 -1 -1 0 -1 -0 0 0 -1 -2 -2 -2 -3 -0
25 29 10 -3 6 3 2 -0 -1 2 1 2 1 1 1 -1 0 1 1 -0 -0 -1 0 -2 -1 -1 -0 0 -0 0 -1 -1 -1 1 1 0 1 2 1 0 2 -2 -1
5 47 19 4 10 1 -1 -2 0 1 1 1 -0 2 3 2 -0 -0 -1 -2 -3 0 -1 -1 1 -1 -1 -0 -0 0 1 1 -0 -2 0 -1 -1 -1 -1 -2 -1 -1 -3
-10 13 12 8 15 4 3 -1 6 4 1 0 2 4 3 2 4 1 -2 -3 -1 -1 2 -1 0 -1 -1 -1 -2 -2 -1 0 1 0 -0 -1 -1 -1 -0 0 -2 -1 -1
-1 -2 9 22 4 0 -3 3 -1 3 3 2 3 2 3 3 3 0 2 -2 4 -5 0 0 0 -1 -1 -0 -2 -1 1 -0 1 1 -1 -1 1 2 2 2 2 -0 0
-3 3 -7 -5 7 7 4 3 -2 0 2 5 -0 3 5 0 1 2 -3 2 1 -0 1 -2 0 -1 -0 -1 -1 -1 -2 1 -2 -1 -0 0 -1 -2 -3 -3 -1 0 -0
-4 -9 5 2 -1 4 3 6 10 2 -1 2 1 0 1 -1 7 -7 1 -2 0 0 0 -2 0 -1 -0 -1 -0 0 0 1 -0 0 -0 -1 1 1 -2 -3 -0 1 -0
-10 -15 1 5 4 2 5 -2 5 2 -2 2 1 0 3 2 -0 3 -2 4 0 -0 1 2 1 2 -1 -0 -0 2 1 0 0 -2 -2 -3 -3 2 -0 -0 -1 0 -1
4 20 11 9 8 5 8 4 1 -1 4 -1 -2 2 -2 3 -2 -0 5 0 -2 -1 1 0 2 1 0 0 0 0 3 0 3 1 4 -1 -1 -3 -2 -2 -2 -2 -2
32 16 6 6 10 4 3 2 13 8 4 -2 -1 -3 0 3 1 2 7 8 4 31 7 5 -1 -3 0 -0 -1 0 3 1 2 1 2 -2 -3 -0 -2 -0 -1 -2 -1
24 18 15 9 6 6 -4 -15 23 7 13 3 0 12 2 14 9 5 2 9 8 19 39 21 15 24 20 9 8 6 5 0 -1 2 6 1 1 2 -3 -1 -1 1 -1
-1 8 -1 2 -9 -11 -2 -3 18 82 -1 12 12 18 7 20 17 15 11 7 16 14 15 17 9 10 5 1 -1 9 12 5 -0 2 4 -1 -4 -5 -8 -10 -4 -1 -1
Height
5869 5871 5874 5877 5879 5880 5881 5882 5883 5884 5885 5885 5885 5885 5885 5884 5885 5885 5885 5885 5885 5885 5885 5884 5884 5883 5883 5883 5883 5883 5883 5884 5884 5883 5883 5882 5881 5880 5879 5877 5875 5874 5872
5865 5868 5870 5873 5876 5877 5878 5879 5880 5882 5883 5883 5883 5883 5883 5884 5884 5884 5884 5884 5884 5884 5884 5884 5883 5883 5883 5882 5883 5882 5883 5883 5883 5883 5882 5882 5880 5879 5878 5877 5875 5874 5872
5860 5864 5867 5870 5872 5874 5875 5877 5878 5879 5880 5881 5881 5882 5881 5882 5882 5883 5883 5883 5883 5883 5883 5883 5882 5882 5882 5882 5882 5882 5882 5882 5882 5882 5882 5881 5880 5879 5878 5876 5875 5874 5872
5855 5859 5863 5865 5868 5870 5872 5873 5876 5877 5877 5878 5879 5879 5879 5880 5880 5881 5881 5882 5882 5881 5881 5882 5881 5881 5881 5881 5881 5881 5881 5882 5882 5882 5882 5880 5879 5878 5878 5876 5875 5873 5872
5850 5855 5859 5861 5864 5866 5868 5871 5872 5874 5875 5876 5876 5876 5876 5877 5878 5879 5880 5880 5880 5880 5880 5880 5880 5880 5880 5880 5880 5881 5881 5881 5881 5881 5881 5880 5879 5878 5877 5875 5874 5872 5871
5846 5850 5854 5857 5860 5862 5864 5867 5869 5871 5872 5873 5874 5874 5875 5876 5877 5878 5878 5879 5879 5879 5879 5879 5879 5879 5879 5880 5880 5880 5880 5880 5881 5880 5879 5879 5878 5876 5875 5874 5873 5871 5870
5841 5845 5848 5853 5855 5858 5860 5863 5866 5867 5869 5870 5870 5871 5873 5875 5876 5876 5877 5877 5878 5878 5877 5877 5877 5877 5877 5878 5878 5878 5879 5879 5879 5879 5878 5877 5876 5875 5874 5873 5871 5870 5868
5834 5839 5843 5847 5850 5853 5856 5858 5861 5864 5865 5867 5868 5869 5870 5872 5873 5874 5874 5875 5875 5876 5876 5875 5875 5875 5876 5876 5876 5877 5877 5877 5877 5877 5876 5876 5874 5873 5872 5871 5870 5868 5866
5826 5832 5838 5840 5845 5848 5850 5854 5856 5859 5861 5863 5865 5866 5867 5869 5870 5871 5872 5872 5873 5874 5874 5875 5874 5874 5874 5874 5874 5875 5875 5875 5875 5875 5874 5874 5872 5871 5870 5869 5868 5866 5864
5818 5823 5830 5834 5838 5841 5844 5847 5851 5853 5856 5859 5861 5862 5864 5865 5866 5868 5869 5869 5870 5871 5872 5872 5873 5873 5873 5873 5873 5873 5873 5873 5873 5872 5872 5872 5871 5869 5868 5867 5865 5863 5861
5802 5809 5817 5824 5829 5833 5838 5841 5845 5849 5851 5854 5856 5858 5859 5861 5863 5864 5865 5866 5867 5867 5868 5868 5869 5870 5870 5870 5870 5871 5871 5871 5871 5870 5869 5869 5868 5867 5866 5865 5864 5862 5860
5788 5798 5807 5813 5821 5826 5830 5835 5839 5842 5846 5849 5852 5854 5855 5857 5858 5860 5861 5862 5863 5864 5864 5865 5865 5866 5867 5867 5868 5868 5868 5868 5867 5867 5866 5866 5865 5864 5863 5862 5861 5860 5858
5773 5788 5796 5804 5813 5819 5824 5827 5832 5836 5840 5843 5847 5849 5850 5852 5854 5855 5857 5857 5859 5859 5861 5862 5861 5862 5863 5864 5864 5864 5864 5864 5864 5863 5863 5862 5861 5860 5859 5858 5857 5856 5855
5767 5779 5785 5797 5805 5812 5817 5821 5826 5830 5834 5838 5841 5844 5846 5847 5849 5851 5852 5853 5854 5855 5856 5858 5858 5858 5859 5860 5860 5860 5860 5860 5860 5860 5859 5858 5857 5856 5855 5854 5852 5851 5850
5769 5771 5774 5783 5796 5804 5810 5815 5819 5824 5827 5831 5834 5837 5840 5841 5844 5845 5846 5848 5849 5850 5851 5853 5853 5853 5854 5855 5855 5855 5855 5855 5855 5856 5855 5854 5853 5852 5851 5849 5847 5845 5844
5760 5763 5765 5775 5785 5795 5801 5808 5813 5817 5821 5825 5830 5832 5834 5836 5838 5840 5841 5842 5844 5845 5846 5848 5849 5849 5849 5850 5850 5850 5851 5850 5850 5850 5850 5850 5849 5848 5847 5845 5843 5841 5838
5757 5759 5758 5764 5776 5784 5792 5800 5805 5811 5815 5819 5823 5826 5829 5830 5832 5833 5836 5837 5839 5840 5841 5842 5843 5843 5844 5845 5845 5844 5845 5844 5844 5844 5843 5843 5843 5842 5841 5840 5837 5833 5831
5751 5757 5759 5761 5768 5775 5784 5790 5798 5803 5807 5812 5816 5819 5822 5824 5825 5827 5829 5832 5834 5834 5836 5836 5837 5838 5838 5839 5839 5839 5839 5838 5838 5837 5836 5836 5835 5835 5833 5832 5831 5828 5825
5749 5753 5756 5759 5760 5764 5773 5782 5788 5795 5800 5805 5809 5812 5814 5817 5820 5822 5822 5825 5827 5828 5829 5829 5830 5831 5831 5831 5832 5832 5832 5833 5832 5831 5830 5829 5827 5827 5825 5823 5821 5820 5818
5744 5749 5752 5755 5759 5762 5767 5773 5778 5786 5793 5798 5800 5804 5808 5811 5814 5815 5815 5818 5821 5820 5822 5823 5824 5824 5824 5823 5824 5824 5825 5825 5825 5824 5822 5821 5820 5820 5819 5817 5815 5812 5809
5742 5747 5750 5753 5756 5760 5762 5765 5772 5780 5785 5789 5792 5795 5798 5803 5807 5808 5808 5809 5812 5813 5814 5816 5817 5818 5815 5816 5816 5816 5817 5817 5816 5816 5816 5814 5812 5811 5811 5808 5806 5804 5801
5740 5741 5746 5750 5752 5753 5756 5763 5768 5775 5777 5782 5785 5788 5791 5794 5797 5800 5802 5803 5804 5807 5807 5807 5809 5808 5808 5806 5807 5807 5807 5808 5808 5808 5808 5807 5805 5803 5802 5801 5798 5795 5792
5732 5738 5742 5746 5749 5752 5756 5759 5763 5767 5770 5773 5777 5780 5784 5788 5792 5792 5795 5797 5798 5799 5799 5799 5799 5799 5799 5799 5797 5798 5799 5799 5800 5800 5799 5798 5797 5794 5793 5791 5790 5787 5783
5725 5731 5735 5739 5743 5747 5752 5755 5756 5760 5763 5765 5770 5774 5778 5782 5784 5785 5788 5790 5792 5789 5790 5790 5790 5791 5790 5791 5790 5789 5791 5793 5792 5793 5792 5789 5787 5786 5784 5782 5779 5776 5773
5718 5722 5727 5731 5737 5743 5748 5750 5755 5756 5760 5761 5767 5769 5772 5775 5774 5777 5779 5782 5783 5783 5781 5780 5781 5782 5781 5780 5781 5782 5783 5782 5782 5784 5784 5782 5780 5778 5775 5773 5769 5767 5764
5711 5717 5723 5727 5733 5737 5742 5746 5745 5748 5754 5757 5761 5763 5764 5766 5767 5766 5769 5772 5775 5774 5774 5771 5772 5773 5771 5771 5771 5772 5774 5773 5774 5774 5776 5774 5772 5769 5765 5762 5759 5756 5752